User: anonymous   Login
Location: South Tamworth Observatory
(43.8246°N, 71.3026°W)
Time: 02:23:50
(UTC-04:00)
Language:

Cosmos 1844 - Orbit

View from above orbital plane
View from above orbital plane
View from above satellite
View from above satellite

Ground track
Ground track

The orbit data is extracted from the following two-line orbital elements,

1 17973U 87041A   17264.62022486 -.00000164 +00000-0 -60376-4 0  9996
2 17973 070.8977 070.3311 0032160 337.0636 022.9047 14.14061350566570
Epoch (UTC): 21 September 2017 14:53:07
Eccentricity: 0.0032160
inclination: 70.8977°
perigee height: 822 km
apogee height: 869 km
right ascension of ascending node: 70.3311°
argument of perigee: 337.0636°
revolutions per day: 14.14061350
mean anomaly at epoch: 22.9047°
orbit number at epoch: 56657

The dashed part of the orbit path shows where the satellite is in the earth's shadow,  

DLR